Location: Newark
(50.2306°N, 14.0814°E)
Time: 08:17:52
(UTC+00:00)

N. Korean satellite - Visible Passes

Search period start: 06 December 2019 00:00
Search period end: 16 December 2019 00:00
Orbit: 456 x 506 km, 97.2° (Epoch: 05 December)

Date Brightness Start Highest point End Pass type
(mag) Time Alt. Az. Time Alt. Az. Time Alt. Az.
06 Dec 6.4 05:09:03 10° NNE 05:12:40 87° WNW 05:16:12 10° SSW visible
06 Dec 6.6 15:48:26 10° SSE 15:52:08 71° ENE 15:55:50 10° N visible
06 Dec 10.1 17:24:41 10° WSW 17:25:58 11° W 17:27:16 10° WNW visible
07 Dec 7.6 04:43:43 10° NNE 04:47:11 46° E 04:50:35 10° S visible
07 Dec 9.5 16:57:26 10° SW 17:00:17 21° W 17:03:09 10° NW visible
08 Dec 9.0 04:18:39 10° NE 04:21:37 24° E 04:24:32 10° SSE visible
08 Dec 7.4 05:51:54 10° N 05:55:02 28° WNW 05:58:06 10° SW visible
08 Dec 8.3 16:31:14 10° SSW 16:34:43 37° W 16:38:11 10° NNW visible
09 Dec 9.9 03:54:12 10° ENE 03:55:57 13° E 03:57:41 10° ESE visible
09 Dec 6.6 05:26:12 10° N 05:29:42 54° WNW 05:33:08 10° SSW visible
09 Dec 6.9 16:05:31 10° S 16:09:13 74° WSW 16:12:55 10° NNW visible
10 Dec 6.7 05:00:43 10° NNE 05:04:17 75° E 05:07:47 10° S visible
10 Dec 6.7 15:40:10 10° SSE 15:43:48 57° ENE 15:47:26 10° N visible
10 Dec 9.9 17:15:34 10° WSW 17:17:32 14° W 17:19:30 10° WNW visible
11 Dec 8.1 04:35:27 10° NNE 04:38:47 36° E 04:42:02 10° SSE visible
11 Dec 7.9 06:09:21 10° NNW 06:11:57 19° WNW 06:14:31 10° WSW visible
11 Dec 9.1 16:48:47 10° SSW 16:51:52 25° W 16:54:58 10° NW visible
12 Dec 9.3 04:10:32 10° NE 04:13:10 20° E 04:15:47 10° SE visible
12 Dec 7.1 05:43:26 10° N 05:46:42 34° WNW 05:49:52 10° SW visible
12 Dec 7.8 16:22:45 10° S 16:26:19 46° W 16:29:53 10° NNW visible
13 Dec 10.1 03:46:44 10° ENE 03:47:28 10° E 03:48:11 10° E visible
13 Dec 6.4 05:17:48 10° N 05:21:20 68° WNW 05:24:47 10° SSW visible
13 Dec 6.6 15:57:09 10° SSE 16:00:51 89° ENE 16:04:32 10° NNW visible
14 Dec 7.1 04:52:23 10° NNE 04:55:52 59° E 04:59:18 10° S visible
14 Dec 6.9 15:31:55 10° SE 15:35:27 45° ENE 15:38:58 10° N visible
14 Dec 9.8 17:06:39 10° SW 17:09:05 17° W 17:11:30 10° NW visible
15 Dec 8.5 04:27:11 10° NNE 04:30:20 29° E 04:33:24 10° SSE visible
15 Dec 7.6 06:00:47 10° NNW 06:03:37 23° WNW 06:06:24 10° WSW visible
15 Dec 8.8 16:40:11 10° SSW 16:43:27 30° W 16:46:42 10° NNW visible
